Location: Namasale
(1.5000°N, 32.6167°E)
Time: 09:39:02
(UTC+00:00)

Courier 1B - Pass Details

Date: 19 April 2021
Orbit: 962 x 1209 km, 28.3° (Epoch: 15 May)

Event Time Altitude Azimuth Distance (km) Brightness Sun altitude
Rises 16:31:21 0° 319° (NW) 3,677 11.5 -10.2°
Reaches altitude 10° 16:34:22 10° 330° (NNW) 2,758 10.5 -10.9°
Maximum altitude 16:40:00 28° 28° (NNE) 1,822 8.8 -12.3°
Enters shadow 16:44:41 14° 78° (ENE) 2,569 9.1 -13.4°
Drops below altitude 10° 16:45:54 10° 85° (E) 2,905 - -13.7°
Sets 16:49:09 0° 96° (E) 3,907 - -14.5°
